Flag for Canada Weather past 2 weeks in Longueuil, Quebec, Canada

Now
73 °F

Mild.


Feels Like: 75 °F
Forecast: 69 / 78 °F
Wind: 5 mph from South

Location: Mc Tavish

Current Time: Aug 30, 2014 at 10:53:50 PM

Latest Report: Aug 30, 2014 at 10:00 PM


Visibility: N/A

Pressure: 29.93 "Hg

Humidity: 68%

Dew point: 62 °F

Location of LongueuilLocation

Historic Weather in Longueuil — Graph

°F

Longueuil temperature yesterday

Maximum temperature yesterday: 73 °F (at 3:00 PM)
Minimum temperature yesterday: 58 °F (at 6:00 AM)
Average temperature yesterday: 65 °F

Past Weeks' High & Low Weather Summary

 TemperatureHumidityPressure
High84 °F (Aug 24, 5:00 PM)100% (Aug 17, 6:00 AM)30.22 "Hg (Aug 17, 6:00 AM)
Low55 °F (Aug 18, 6:00 AM)36% (Aug 24, 4:00 PM)29.72 "Hg (Aug 17, 3:00 AM)
Average69 °F66%29.99 "Hg
* Reported Aug 15 9:00 PM — Aug 30 9:00 PM, Longueuil, Weather by CustomWeather, © 2014

Note: Actual official high and low records may vary slightly from our data, if they occured in-between our weather recording intervals... More about our weather records

Advertising

Longueuil weather history for previous 24 hours

 ConditionsComfort  
Time TempWeatherWind HumidityBarometerVisibility
9:00 PM
Aug 30
73 °FMild.3 mph66%29.94 "HgN/A
8:00 PM74 °FMild.3 mph62%29.94 "HgN/A
7:00 PM76 °FMild.3 mph59%29.95 "HgN/A
6:00 PM77 °FWarm.5 mph56%29.96 "HgN/A
5:00 PM78 °FWarm.6 mph55%29.98 "HgN/A
4:00 PM79 °FWarm.3 mph53%29.99 "HgN/A
3:00 PM76 °FMild.6 mph57%30.01 "HgN/A
2:00 PM78 °FWarm.3 mph53%30.03 "HgN/A
1:00 PM76 °FMild.5 mph56%30.05 "HgN/A
12:00 PM76 °FMild.3 mph57%30.06 "HgN/A
11:00 AM73 °FMild.5 mph59%30.08 "HgN/A
10:00 AM71 °FMild.5 mph61%30.09 "HgN/A
9:00 AM69 °FMild.2 mph67%30.10 "HgN/A
8:00 AM65 °FMild.3 mph71%30.11 "HgN/A
7:00 AM64 °FMild.2 mph73%30.12 "HgN/A
6:00 AM64 °FMild.5 mph73%30.12 "HgN/A
5:00 AM64 °FMild.5 mph75%30.12 "HgN/A
4:00 AM63 °FMild.3 mph75%30.12 "HgN/A
3:00 AM64 °FMild.6 mph76%30.13 "HgN/A
2:00 AM65 °FMild.2 mph76%30.14 "HgN/A
1:00 AM65 °FMild.3 mph73%30.15 "HgN/A
12:00 AM65 °FMild.1 mph71%30.16 "HgN/A
11:00 PM
Aug 29
65 °FMild.2 mph70%30.15 "HgN/A
10:00 PM67 °FMild.2 mph63%30.16 "HgN/A
Weather by CustomWeather, © 2014

See weather overviewHow to use our weather pages